This demonstration page uses our WeatherBlox Daily Observations layout. Learn more.

Left ArrowRight Arrow

Hourly Observations for December 15, 2021

Temp ( °F °C ) Dew Point ( °F °C ) Humidity (%) Winds ( mph kmh ) Pressure ( in mb ) Visibility ( mi km ) Precip ( " mm )
12:53 am 00:53 Cloudy 13 -10.6 7 -13.9 77 77 WNW 10 17 29.85 1011 10 16 0.00 0.00
1:53 am 01:53 Cloudy 12 -11.1 6 -14.4 77 77 NW 13 20 29.86 1011 10 16 0.00 0.00
2:37 am 02:37 Cloudy with Light Snow 11 -11.7 6 -14.4 81 81 NW 9 15 29.99 1016 2 3 0.00 0.00
2:53 am 02:53 Cloudy with Light Snow 11 -11.7 6 -14.4 81 81 WNW 8 13 29.88 1012 3 5 0.01 0.25
3:53 am 03:53 Cloudy 11 -11.7 4 -15.6 73 73 WNW 15 24 29.90 1012 10 16 0.00 0.00
4:53 am 04:53 Mostly Cloudy 10 -12.2 3 -16.1 73 73 WNW 14 22 29.92 1013 10 16 0.00 0.00
5:53 am 05:53 Cloudy 9 -12.8 3 -16.1 77 77 WNW 9 15 29.95 1014 10 16 0.00 0.00
6:53 am 06:53 Cloudy 9 -12.8 3 -16.1 77 77 W 9 15 29.97 1015 10 16 0.00 0.00
7:53 am 07:53 Clear 8 -13.3 2 -16.7 76 76 WNW 9 15 29.99 1016 10 16 0.00 0.00
8:53 am 08:53 Sunny 6 -14.4 0 -17.8 76 76 W 5 7 30.02 1017 10 16 0.00 0.00
9:53 am 09:53 Sunny 7 -13.9 -1 -18.3 70 70 W 8 13 30.03 1017 10 16 0.00 0.00
10:53 am 10:53 Mostly Sunny 8 -13.3 0 -17.8 69 69 W 13 20 30.04 1017 10 16 0.00 0.00
11:53 am 11:53 Sunny 10 -12.2 2 -16.7 69 69 WSW 9 15 30.04 1017 10 16 0.00 0.00
12:53 pm 12:53 Mostly Cloudy 11 -11.7 2 -16.7 67 67 W 9 15 30.04 1017 10 16 0.00 0.00
1:53 pm 13:53 Cloudy 11 -11.7 4 -15.6 73 73 SW 12 19 30.04 1017 10 16 0.00 0.00
2:53 pm 14:53 Cloudy 11 -11.7 4 -15.6 73 73 SW 10 17 30.04 1017 10 16 0.00 0.00
3:53 pm 15:53 Mostly Cloudy 9 -12.8 3 -16.1 77 77 SW 10 17 30.05 1018 10 16 0.00 0.00
4:53 pm 16:53 Clear 6 -14.4 1 -17.2 79 79 WSW 8 13 30.06 1018 10 16 0.00 0.00
5:53 pm 17:53 Clear 1 -17.2 -2 -18.9 87 87 SW 8 13 30.06 1018 10 16 0.00 0.00
6:53 pm 18:53 Clear -1 -18.3 -4 -20 87 87 WSW 9 15 30.06 1018 10 16 0.00 0.00
7:53 pm 19:53 Clear 1 -17.2 -3 -19.4 83 83 Calm 30.05 1018 10 16 0.00 0.00
8:53 pm 20:53 Clear 0 -17.8 -3 -19.4 87 87 WNW 5 7 30.06 1018 10 16 0.00 0.00
9:53 pm 21:53 Clear -2 -18.9 -5 -20.6 87 87 SSW 3 6 30.06 1018 10 16 0.00 0.00
10:53 pm 22:53 Clear -2 -18.9 -6 -21.1 83 83 SE 6 9 30.04 1017 10 16 0.00 0.00
11:53 pm 23:53 Clear -1 -18.3 -5 -20.6 82 82 Calm 30.03 1017 10 16 0.00 0.00

Powered by AerisWeather